Location: Navajo
(48.7922°N, 105.0603°W)
Time: 07:14:28
(UTC+00:00)

DUCHIFAT 1 - Pass Details

Date: 29 June 2022
Orbit: 580 x 596 km, 98.0° (Epoch: 07 August)

Event Time Altitude Azimuth Distance (km) Brightness Sun altitude
Rises 10:10:48 0° 9° (N) 2,841 ? -6.8°
Reaches altitude 10° 10:13:01 10° 4° (N) 1,937 ? -6.5°
Maximum altitude 10:17:04 49° 290° (WNW) 779 ? -6.1°
Drops below altitude 10° 10:21:06 10° 216° (SW) 1,930 ? -5.6°
Enters shadow 10:21:51 - 213° (SSW) 2,231 ? -5.5°
